STARLINK-4737 (53834 NORAD) Tracking and Keplerian Element Data

This shows tracking and keplerian element data for the satellite.

Feedback or suggestion? Click here.




ElementValue
Catalog53834
NameSTARLINK-4737
Epoch Orbit1047
Epoch Day325.33334491
Epoch Year2022
RAAN310.4585
Inclination53.2174
Eccentricity0.0001766
Argument of Perigee47.0523
Mean Anonmoly96.1837
Mean Motion15.17548695
Decay Rate-0.01156601
L11 53834U 22114S 22325.33334491 -.01156601 00000+0 -61797-1 0 9999
L22 53834 53.2174 310.4585 0001766 47.0523 96.1837 15.17548695 10471



Live tracking and technical data element details for STARLINK-4737 (NORAD 53834). STARLINK-4737 can be tracked NOW for your location showing map with azimuth and elevation plus other details from your city location.







IsCatalogInMostPopularTable: catalog: 53834, numindb: -1

Insert: records affected: 1


GetName: 53834 STARLINK-4737

Hit Count: inserted at: Thu, 08 Dec 2022 10:31:49 GMT